Regional Weather Roundup
Issued by NWS Northern Indiana

Home | Current Version | Previous Version | Text Only | Print | Product List | Glossary Off
Versions: 1 2 3 4 5 6 7 8 9 10 11 12 13 14 15 16 17 18 19 20 21 22 23 24 25 26 27 28 29 30 31 32 33 34 35 36 37 38 39 40 41 42 43 44 45 46 47 48 49 50

000
ASUS43 KIWX 130500
RWRIWX

KIWX WEATHER ROUNDUP
NATIONAL WEATHER SERVICE NORTHERN INDIANA
100 AM EDT SUN JUL 13 2014

NOTE: "FAIR" INDICATES FEW OR NO CLOUDS BELOW 12,000 FEET WITH NO
SIGNIFICANT WEATHER AND/OR OBSTRUCTIONS TO VISIBILITY.

* THESE STATIONS ARE NOT UNDER NWS QUALITY CONTROL. THEY ALSO MAY NOT
  REPORT WEATHER SUCH AS PRECIPITATION OR FOG.

INZ001>027-130600-
NORTHERN INDIANA

CITY           SKY/WX    TMP DP  RH WIND       PRES   REMARKS
VALPARAISO     CLOUDY    77  74  90 SW13      29.91R
SOUTH BEND     LGT RAIN  76  72  87 SW14      29.90F
GOSHEN         LGT RAIN  76  71  85 S10       29.92F
MONTICELLO*    CLOUDY    76  74  92 SW13G20   29.93F
WARSAW*        CLOUDY    73  70  88 SW6       29.94R
ANGOLA*        CLOUDY    73  66  78 S8        29.94S
FORT WAYNE     MOCLDY    74  69  85 SW14      29.96S

$$
INZ028>050-130600-
CENTRAL INDIANA

CITY           SKY/WX    TMP DP  RH WIND       PRES   REMARKS
LAFAYETTE      MOCLDY    76  73  91 SW9       29.95S
KOKOMO*        CLOUDY    75  70  83 SW14G23   29.97S
MUNCIE*        PTCLDY    76  68  76 SW9       30.00S
INDIANAPOLIS   MOCLDY    75  70  84 S12       30.00S

$$
MIZ043>046-050>051-056>058-064>065-071>073-077>080-130600-
SOUTHWEST LOWER MICHIGAN

CITY           SKY/WX    TMP DP  RH WIND       PRES   REMARKS
BATTLE CREEK   CLOUDY    74  69  85 S16       29.89F
BENTON HARBOR  CLOUDY    75  72  90 SW12      29.86S
COLDWATER*     CLOUDY    76  69  80 S8        29.93S
HILLSDALE*     CLOUDY    74  70  87 S12G18    29.94S
HOLLAND        LGT RAIN  76  73  91 S15       29.83F
GRAND RAPIDS   TSTM      74  70  87 SW14G25   29.82F FOG
KALAMAZOO      CLOUDY    74  70  87 S13       29.88F
STURGIS*       LGT RAIN  73  70  88 S10       29.91F
THREE RIVERS*  LGT RAIN  74  72  91 S12       29.90S

$$
OHZ001>008-015>018-024>025-130600-
NORTHWEST OHIO

CITY           SKY/WX    TMP DP  RH WIND       PRES   REMARKS
DEFIANCE       CLOUDY    75  68  78 S7        29.95F
FINDLAY        MOCLDY    75  69  81 S12       29.96F
TOLEDO EXPRESS CLOUDY    74  67  78 SW7       29.94F
TOLEDO METCALF MOCLDY    75  68  78 S9        29.95F
LIMA           MOCLDY    77  69  76 S10       29.99F

$$
&&


USA.gov is the U.S. government's official web portal to all federal, state and local government web resources and services.